Regional Weather Roundup
Issued by NWS Jackson, KY

Home | Current Version | Previous Version | Text Only | Print | Product List | Glossary On
Versions: 1 2 3 4 5 6 7 8 9 10 11 12 13 14 15 16 17 18 19 20 21 22 23 24 25 26 27 28 29 30 31 32 33 34 35 36 37 38 39 40 41 42 43 44 45 46 47 48 49 50
000
ASUS43 KJKL 230910
RWRJKL

EAST KENTUCKY HOURLY WEATHER ROUNDUP
NATIONAL WEATHER SERVICE JACKSON KY
400 AM EST SAT FEB 23 2019

NOTE: "FAIR" INDICATES FEW OR NO CLOUDS BELOW 12,000 FEET WITH
NO SIGNIFICANT WEATHER AND/OR OBSTRUCTIONS TO VISIBILITY.

* THESE REPORTS ARE NOT UNDER NWS QUALITY CONTROL AND MAY NOT
  REPORT WEATHER SUCH AS PRECIPITATION AND FOG.

KYZ079-080-083-085-087-088-110-112-115-119-120-231000
...EASTERN KENTUCKY...

CITY           SKY/WX    TMP DP  RH WIND       PRES   REMARKS
JACKSON        CLOUDY    41  41 100 VRB3      30.15R FOG
LONDON         LGT RAIN  42  42 100 E3        30.14R
MONTICELLO*    LGT RAIN  43  43 100 VRB5      30.12F
WILLIAMSBURG*  CLOUDY    43  43 100 NE10      30.12F
MIDDLESBORO*   RAIN      50  50 100 CALM      30.15S
HARLAN APT*    CLOUDY    50  48  91 CALM      30.14R
PIKE CO APT*   MOCLDY    45  45 100 E3        30.13S FOG
BIG SANDY APT* CLOUDY    41  41 100 NE3       30.14F FOG
MOREHEAD APT*  CLOUDY    41  34  75 E3        30.16R
ASHLAND*       CLOUDY    42  32  67 CALM      30.17F
$$

KYZ035-036-041-042-044-050-067-078-099-231000
...CENTRAL KENTUCKY...

CITY           SKY/WX    TMP DP  RH WIND       PRES   REMARKS
MT STERLING*   CLOUDY    39  36  87 E7        30.14S WCI  34
FLEMING/MASON* MOCLDY    40  32  71 E6        30.14F
DANVILLE*      DRIZZLE   41  39  93 SE3       30.12F
LEXINGTON      MOCLDY    41  37  86 E9        30.11F
FRANKFORT      CLOUDY    41  38  89 NE7       30.12F
LOUISVILLE     MOCLDY    42  35  76 CALM      30.12S
LEBANON*         N/A     41  41 100 NE5       30.10S
GLASGOW*       LGT RAIN  45  44  98 E7        30.06F
BOWLING GREEN  LGT RAIN  46  43  89 NE3       30.08S
$$

KYZ091>093-OHZ055-061-077-WVZ005-015-034-035-042-231000
...SOUTHERN OHIO/WEST VIRGINIA...

CITY           SKY/WX    TMP DP  RH WIND       PRES   REMARKS
COVINGTON      CLOUDY    39  29  67 E9        30.13F WCI  33
COLUMBUS       CLOUDY    36  26  67 E9        30.21F WCI  29
DAYTON         CLOUDY    36  27  69 E6        30.18F WCI  31
WILMINGTON     CLOUDY    35  28  75 E10       30.16F WCI  27
HUNTINGTON     CLOUDY    43  29  57 E8        30.16F
CHARLESTON     CLOUDY    45  36  70 E5        30.17F
PINEVILLE*       N/A     45  44  95 MISG      30.22R
BECKLEY        CLOUDY    42  41  96 SE7G16    30.18R
BLUEFIELD      LGT RAIN  40  38  93 E9G20     30.17F WCI  34
LOGAN CO APT*  CLOUDY    48  46  93 VRB3      30.15R
$$

VAZ002-007-008-TNZ017-027-036-066-071-231000
...SOUTHWEST VIRGINIA/EAST TENNESSEE...

CITY           SKY/WX    TMP DP  RH WIND       PRES   REMARKS
WISE*          RAIN      46  46 100 S12G18    30.14S
JONESVILLE*    LGT RAIN  50  50 100 CALM      30.18S
ABINGDON*      RAIN      45  44  97 E12       30.18S
BRISTOL        RAIN      50  48  93 SE7       30.17S
MORRISTOWN*    CLOUDY    50  50 100 NE6       30.13S FOG
SEVIERVILLE*   CLOUDY    50  50 100 NE5       30.11F FOG
KNOXVILLE      HVY RAIN  50  49  96 NE8       30.09F FOG
LAFOLLETTE*    CLOUDY    50  48  93 CALM      30.16F FOG
OAK RIDGE      HVY RAIN  50  50 100 CALM      30.13F FOG
CROSSVILLE     RAIN      49  49 100 VRB3      30.11S FOG
NASHVILLE      RAIN      51  48  89 E6        30.06F FOG
$$

...KEY TO REMARKS...
VSB - VISIBILITY IN MILES
WCI - WIND CHILL INDEX
HX  - HEAT INDEX

$$




USA.gov is the U.S. government's official web portal to all federal, state and local government web resources and services.